Location: Fort Wayne
(41.1310°N, 85.1290°W)
Time: 17:07:54
(UTC-04:00)

IDEFIX/ARIANE 42P - Visible Passes

Search period start: 22 June 2018 00:00
Search period end: 02 July 2018 00:00
Orbit: 786 x 802 km, 98.3° (Epoch: 21 June)

Date Brightness Start Highest point End Pass type
(mag) Time Alt. Az. Time Alt. Az. Time Alt. Az.
22 Jun 5.4 05:07:55 10° ENE 05:10:06 12° E 05:12:16 10° ESE visible
25 Jun 5.1 05:21:26 10° NE 05:24:54 18° E 05:28:20 10° SE visible
28 Jun 4.8 05:35:26 10° NE 05:39:40 24° E 05:43:50 10° SSE visible
29 Jun 5.3 05:08:38 10° ENE 05:11:01 13° E 05:13:24 10° ESE visible
